Snowfall_Accumulation
0.3 0.3 0.2 0.2 0.4 0.4 0.3 0.3 0.3 0.3 0.3 0.3 0.6 0.6 0.9 1.0 1.1 1.3 1.4 1.8 2.5 2.6 2.8 2.9 3.9 4.5 4.1 4.2 4.3 4.1 4.6 4.5 3.6 3.7 4.6 5.2 5.9 6.2 7.1 7.5 7.7 8.4
0.3 0.4 0.4 0.5 0.5 0.5 0.5 0.4 0.5 0.5 0.7 0.6 0.6 0.6 0.9 0.7 1.4 1.3 1.6 1.8 2.1 2.4 2.6 3.1 3.0 3.4 3.4 4.1 3.8 4.7 4.2 4.2 5.2 3.5 4.3 4.6 5.0 4.7 5.4 5.5 6.2 6.2
0.7 0.7 0.7 0.9 1.0 1.0 1.0 1.1 1.2 1.2 1.2 1.1 1.1 1.2 1.5 1.1 1.1 1.1 1.3 1.8 2.2 3.0 3.2 4.3 4.6 4.9 5.4 4.7 3.7 3.7 4.1 5.1 5.0 4.5 4.8 4.8 4.3 5.0 4.9 4.7 5.3 5.8
0.8 0.9 1.0 1.2 1.3 1.4 1.4 1.5 1.4 1.6 1.4 1.5 1.5 1.4 1.4 1.7 1.7 1.9 2.0 2.2 2.3 2.4 2.8 3.2 3.8 4.5 4.7 5.1 6.7 6.6 6.3 6.0 5.8 5.6 5.9 6.0 5.8 5.4 5.4 5.0 5.5 5.8
0.9 1.0 1.1 1.2 1.3 1.6 1.6 1.6 1.9 2.0 2.3 2.3 2.5 2.3 2.7 2.6 2.8 2.9 3.0 3.2 2.9 3.0 3.7 3.3 3.2 3.4 3.4 3.7 3.9 4.8 4.8 5.4 5.4 5.3 5.5 5.8 5.6 5.7 5.9 6.1 6.7 7.0
1.5 1.5 1.8 2.0 1.8 2.0 2.3 2.7 2.5 2.6 3.1 2.9 2.6 2.3 2.7 2.8 3.0 3.1 3.2 3.4 3.4 3.3 3.4 5.2 4.0 3.8 4.2 3.7 3.8 3.9 4.2 4.3 4.4 4.7 5.6 6.3 6.3 6.0 6.1 6.2 6.7 6.9
2.5 2.7 2.7 3.3 3.0 3.2 3.5 3.5 3.5 3.7 3.3 3.3 3.6 3.7 2.8 3.0 3.0 3.2 3.4 3.5 3.8 4.0 4.1 4.9 4.6 4.9 4.3 4.6 5.1 5.0 5.1 5.1 5.3 5.6 6.0 6.0 5.9 6.3 6.2 7.3 7.8 8.0
3.5 3.5 3.8 3.5 3.7 3.3 3.4 3.5 4.2 4.2 3.9 3.7 4.1 3.2 3.4 3.3 3.5 3.5 3.7 3.7 4.0 4.1 4.1 4.3 5.1 5.4 5.2 5.5 5.8 5.5 5.5 5.4 6.1 6.9 6.8 6.9 6.6 7.1 6.5 6.8 7.5 8.4
3.8 3.9 3.8 3.8 4.0 4.0 4.7 4.7 4.4 4.4 4.2 4.1 3.8 3.7 3.5 3.7 3.7 3.7 3.8 3.8 3.9 3.7 3.7 4.1 4.2 4.6 4.4 5.4 6.0 6.1 6.1 5.9 5.9 6.4 6.8 7.1 7.1 7.0 6.8 6.8 7.8 8.4
4.0 3.8 3.9 4.1 4.8 4.5 4.5 4.4 5.1 4.4 4.4 4.5 4.6 4.4 4.6 4.2 4.1 3.9 4.1 4.1 4.3 4.4 4.7 4.3 4.3 4.1 4.2 4.7 5.0 5.0 5.7 6.1 5.7 5.7 6.1 6.7 7.2 7.2 7.2 7.8 8.6 9.2
4.7 4.6 4.9 4.9 5.0 4.9 5.0 4.8 5.4 4.8 4.7 5.5 5.2 5.5 6.1 5.2 5.0 4.6 4.9 5.1 5.1 4.9 4.7 4.6 4.6 4.5 4.7 4.8 4.6 4.6 5.0 5.3 5.7 6.1 6.3 6.6 6.7 7.1 7.7 8.3 8.7 9.0
4.9 4.8 4.9 5.0 5.0 5.5 5.1 5.0 5.1 5.3 5.4 5.8 6.4 5.5 5.9 5.6 5.8 5.7 5.6 5.3 5.1 5.0 5.0 5.3 4.9 5.1 5.2 5.8 5.1 4.7 4.7 4.8 5.0 5.1 5.2 5.6 6.0 6.3 6.6 7.2 7.9 8.0
4.8 4.9 4.9 5.0 5.1 5.2 5.3 5.5 5.4 5.3 5.5 5.8 5.8 6.2 6.7 6.9 6.8 6.2 6.0 5.9 5.8 5.6 5.6 5.5 5.3 5.2 5.4 5.5 5.4 5.3 5.5 5.6 5.7 5.6 5.5 5.4 5.5 5.4 5.2 5.5 5.9 6.4
5.2 5.1 5.1 5.2 5.3 6.1 5.4 5.4 5.6 5.9 6.2 6.1 6.5 6.8 7.4 7.3 7.3 6.4 5.8 5.6 5.8 5.8 5.5 5.3 5.4 5.3 5.4 5.8 5.8 5.8 6.0 6.4 6.2 6.9 6.9 6.4 5.6 5.0 5.0 5.3 5.2 5.1
5.6 5.5 5.6 6.0 5.7 6.0 6.1 6.0 6.0 6.3 6.1 6.3 6.8 7.3 6.8 6.7 6.7 6.3 6.2 6.2 5.6 5.5 5.7 5.2 5.6 5.5 5.5 6.7 6.9 6.9 7.4 9.1 9.0 9.3 8.7 8.2 7.6 7.0 6.1 5.6 5.3 5.1
6.0 6.1 6.3 6.7 6.7 6.8 6.4 6.1 6.1 6.3 6.8 6.5 7.0 7.0 6.9 6.3 6.5 6.5 6.9 8.1 6.5 6.1 5.8 6.2 5.9 5.5 5.5 7.5 7.4 10.9 13.6 14.6 14.9 14.4 13.7 13.3 12.6 11.3 9.4 7.8 6.9 6.1
6.6 6.9 6.7 6.8 6.8 6.6 6.6 6.8 6.9 6.9 7.1 7.3 7.2 7.2 7.4 7.9 7.4 8.1 7.7 7.4 7.1 7.1 7.4 7.0 6.7 5.9 5.7 8.4 12.3 15.7 18.5 20.6 20.2 18.2 15.6 14.3 13.1 12.2 11.0 8.4 6.9 6.0
7.0 7.1 7.3 7.5 7.4 7.5 7.7 8.0 7.7 8.1 8.2 8.1 8.7 8.2 8.4 8.2 9.2 9.5 8.1 7.6 7.7 7.8 8.1 7.7 7.6 6.3 6.9 12.3 14.9 19.4 25.0 26.0 23.8 21.5 18.4 16.0 14.0 13.0 11.5 10.1 8.8 7.8
7.2 7.7 8.0 8.2 8.3 9.1 8.5 8.7 9.0 9.0 8.9 9.0 9.0 8.8 9.1 9.9 10.3 9.1 8.9 8.8 9.0 9.8 9.1 8.4 8.3 6.9 8.4 12.9 16.2 22.1 27.3 30.7 26.4 22.5 19.8 16.4 13.6 12.1 11.0 10.0 9.2 9.5
7.4 7.9 8.4 8.5 8.5 8.4 8.5 8.8 9.0 9.3 9.0 9.3 9.3 9.3 10.1 10.4 9.9 10.2 9.9 10.5 10.8 11.2 10.8 10.2 9.6 8.2 9.0 14.4 20.2 24.3 29.5 34.8 29.0 24.7 20.4 17.0 14.1 12.0 10.5 9.5 8.8 9.1
7.5 8.2 8.9 8.5 8.3 8.2 8.4 8.7 8.9 8.8 8.7 8.9 9.5 10.1 10.9 11.7 11.4 11.5 11.6 11.9 12.1 13.1 12.9 12.5 10.7 9.0 11.9 17.9 21.7 25.7 30.2 37.0 31.5 25.4 20.1 16.0 12.8 11.1 10.5 9.7 8.8 8.5
7.3 7.9 8.0 8.2 8.2 8.4 9.1 9.2 8.8 8.8 9.6 9.0 9.8 10.2 10.5 10.8 10.2 10.3 10.8 11.0 10.6 11.2 12.3 12.1 9.6 8.9 13.1 17.9 20.5 25.8 32.9 33.0 31.4 25.2 20.2 15.8 12.6 10.4 9.5 8.5 7.9 8.4
7.2 7.7 8.1 8.0 8.2 8.8 8.9 8.8 8.8 8.5 8.3 8.3 9.8 9.3 9.1 8.7 8.8 8.4 8.7 9.6 9.9 10.0 10.5 9.8 9.0 8.7 10.7 16.1 18.5 24.0 35.2 38.3 33.9 26.4 20.3 16.2 12.3 10.2 9.2 8.5 7.8 7.9
6.6 7.3 8.2 8.2 8.4 8.6 8.2 7.6 7.2 7.4 7.8 7.5 9.1 9.1 8.9 8.4 8.0 8.5 8.4 8.7 9.5 9.7 9.5 10.0 9.0 7.9 9.3 13.5 17.1 22.3 32.1 36.1 34.2 29.9 23.0 17.6 14.3 11.6 10.3 9.7 8.0 8.0
6.7 7.0 7.6 8.2 8.4 7.8 7.3 7.5 7.3 7.4 7.2 7.5 8.1 8.2 8.3 7.5 7.8 8.5 8.3 8.3 8.4 8.5 8.3 9.5 9.3 8.0 8.0 12.0 15.5 23.0 29.1 33.2 33.0 29.2 25.8 19.6 16.1 14.1 10.9 9.3 8.0 7.1
6.4 7.1 7.2 7.9 8.2 7.6 7.1 7.4 7.3 7.7 7.3 7.8 7.6 7.2 7.4 7.0 7.2 7.4 7.6 7.5 7.5 8.6 9.1 9.0 9.1 8.5 8.4 9.2 17.1 24.5 26.2 28.8 30.8 29.9 27.9 22.7 18.8 16.0 15.3 12.8 10.1 8.9